This is the latest recevied weather packets stored in our database for station/object AA8FM-13. If no packets are shown the sender has not sent any weather packets the latest 1 day(s).
| Time | Temp. | Humidity | Pressure | Rain* | Wind** | Luminosity | Snow |
|---|---|---|---|---|---|---|---|
| 1778051154 | 15.56° C | 86% | 1004.4 hPa | 0 mm | 0 m/s | 0 W/m² | - |
| 1778050851 | 15.56° C | 84% | 1004.6 hPa | 0 mm | 0 m/s | 0 W/m² | - |
| 1778050549 | 15.56° C | 82% | 1004.7 hPa | 0 mm | 0 m/s | 0 W/m² | - |
| 1778050245 | 15° C | 82% | 1004.5 hPa | 0 mm | 0 m/s | 0 W/m² | - |
| 1778049942 | 15.56° C | 84% | 1004.5 hPa | 0 mm | 0 m/s | 0 W/m² | - |
| 1778049642 | 15.56° C | 83% | 1004.7 hPa | 0 mm | 0 m/s | 0 W/m² | - |
| 1778049336 | 15.56° C | 81% | 1004.6 hPa | 0 mm | 0 m/s | 0 W/m² | - |
| 1778049033 | 15.56° C | 80% | 1004.6 hPa | 0 mm | 0 m/s | 0 W/m² | - |
| 1778048731 | 15.56° C | 84% | 1004.8 hPa | 0 mm | 0 m/s | 0 W/m² | - |
| 1778048428 | 15.56° C | 84% | 1004.9 hPa | 0 mm | 0 m/s | 0 W/m² | - |
| 1778048123 | 15.56° C | 84% | 1004.8 hPa | 0 mm | 0 m/s | 0 W/m² | - |
| 1778047821 | 15.56° C | 84% | 1005 hPa | 0 mm | 0 m/s | 0 W/m² | - |
| 1778047520 | 15.56° C | 85% | 1005.2 hPa | 0 mm | 0 m/s | 0 W/m² | - |
| 1778047217 | 15.56° C | 84% | 1005.1 hPa | 0 mm | 0 m/s | 0 W/m² | - |
| 1778046914 | 16.11° C | 81% | 1005.3 hPa | 0 mm | 0 m/s | 0 W/m² | - |
| 1778046610 | 15.56° C | 77% | 1005.4 hPa | 0 mm | 0 m/s | 0 W/m² | - |
| 1778046308 | 15.56° C | 79% | 1005.4 hPa | 0 mm | 0 m/s | 0 W/m² | - |
| 1778046003 | 15.56° C | 81% | 1005.2 hPa | 0 mm | 0 m/s | 0 W/m² | - |
| 1778045701 | 16.11° C | 82% | 1005.6 hPa | 0 mm | 0 m/s | 0 W/m² | - |
| 1778045399 | 16.11° C | 80% | 1005.4 hPa | 0 mm | 0 m/s | 0 W/m² | - |
| 1778045098 | 16.11° C | 78% | 1005.6 hPa | 0 mm | 0 m/s | 0 W/m² | - |
| 1778044795 | 16.11° C | 78% | 1005.8 hPa | 0 mm | 0 m/s | 0 W/m² | - |
| 1778044491 | 16.11° C | 78% | 1005.9 hPa | 0 mm | 0 m/s | 0 W/m² | - |
| 1778044188 | 16.11° C | 82% | 1005.8 hPa | 0 mm | 0 m/s | 0 W/m² | - |
| 1778043886 | 16.67° C | 79% | 1005.6 hPa | 0 mm | 0 m/s | 0 W/m² | - |
* Rain latest hour (hover to see other rain measurements)
** Current wind speed in m/s (hover to see current wind gust speed)